Weather History for KDDC - January, 2014

Change the Weather History Date:

Friday, January 10, 2014

  Actual Average Record
Temperature  
Mean Temperature 37 °F -  
Max Temperature 48 °F 36 °F 76 °F (1911)
Min Temperature 26 °F 16 °F -7 °F (1962)
Degree Days  
Heating Degree Days 28    
Moisture  
Dew Point 26 °F    
Average Humidity 71    
Maximum Humidity 92    
Minimum Humidity 27    
Precipitation  
Precipitation 0.00 in - - ()
Sea Level Pressure  
Sea Level Pressure 29.71 in    
Wind  
Wind Speed 19 mph (WNW)    
Max Wind Speed 34 mph    
Max Gust Speed 44 mph    
Visibility 8 miles    
Events      
Averages and records for this station are not official NWS values.
T = Trace of Precipitation, MM = Missing Value Source: NWS Daily Summary

Daily Weather History Graph

Daily Weather History Graph

Search for Another Location

Airport or City:

Trip Planner

Search our weather history database for the weather conditions in past years. The results will help you decide how hot, cold, wet, or windy it might be!

Date:

Astronomy

Jan. 10, 2014 Rise Set
Actual Time 7:55 AM CST 5:39 PM CST
Civil Twilight 7:26 AM CST 6:08 PM CST
Nautical Twilight 6:53 AM CST 6:41 PM CST
Astronomical Twilight 6:22 AM CST 7:13 PM CST
Moon 1:43 PM CST (1/10) 3:06 AM CST (1/10)
Length of Visible Light 10h 42m
Length of Day
9h 44m
Waxing Gibbous, 75% of the Moon is Illuminated
Jan 10
Waxing Gibbous
Jan 15
Full
Jan 23
Last Quarter
Jan 30
New
Feb 6
First Quarter

Hourly Weather History & Observations

Time (CST) Temp. Windchill Dew Point Humidity Pressure Visibility Wind Dir Wind Speed Gust Speed Precip Events Conditions
12:52 AM 32.0 °F 18.6 °F 28.9 °F 88% 29.78 in 4.0 mi South 25.3 mph - N/A   Overcast
1:52 AM 32.0 °F 19.5 °F 30.0 °F 92% 29.72 in 4.0 mi South 21.9 mph - N/A   Overcast
2:52 AM 33.1 °F 21.9 °F 30.9 °F 92% 29.69 in 4.0 mi South 18.4 mph - N/A   Overcast
3:48 AM 33.8 °F 23.2 °F 30.2 °F 87% 29.62 in 5.0 mi South 17.3 mph - N/A   Partly Cloudy
3:52 AM 33.1 °F 22.6 °F 30.9 °F 92% 29.66 in 5.0 mi South 16.1 mph - N/A   Partly Cloudy
4:52 AM 30.9 °F 21.2 °F 28.9 °F 92% 29.63 in 5.0 mi South 12.7 mph - N/A   Clear
5:52 AM 32.0 °F 22.1 °F 28.0 °F 85% 29.63 in 8.0 mi SSW 13.8 mph - N/A   Clear
6:52 AM 30.0 °F 21.1 °F 26.1 °F 85% 29.62 in 9.0 mi WSW 10.4 mph - N/A   Clear
7:52 AM 26.1 °F 15.0 °F 21.9 °F 84% 29.68 in 10.0 mi WNW 12.7 mph - N/A   Clear
8:01 AM 27.0 °F 16.1 °F 21.9 °F 81% 29.63 in 9.0 mi WNW 12.7 mph - N/A   Scattered Clouds
8:10 AM 27.0 °F 13.5 °F 23.0 °F 85% 29.64 in 6.0 mi NW 19.6 mph - N/A   Mostly Cloudy
8:52 AM 30.0 °F 17.2 °F 27.0 °F 88% 29.73 in 4.0 mi NW 20.7 mph - N/A   Mostly Cloudy
9:07 AM 30.9 °F 18.7 °F 28.0 °F 89% 29.69 in 4.0 mi NW 19.6 mph - N/A   Scattered Clouds
9:52 AM 33.1 °F 21.2 °F 28.9 °F 85% 29.74 in 6.0 mi NW 20.7 mph 29.9 mph N/A   Overcast
10:52 AM 37.0 °F 29.8 °F 28.0 °F 70% 29.73 in 9.0 mi NNW 10.4 mph - N/A   Overcast
11:52 AM 43.0 °F 35.1 °F 26.1 °F 51% 29.70 in 10.0 mi NW 17.3 mph - N/A   Clear
12:52 PM 46.9 °F - 18.0 °F 32% 29.65 in 10.0 mi NW 24.2 mph 34.5 mph N/A   Clear
1:52 PM 48.0 °F - 17.1 °F 29% 29.62 in 10.0 mi WNW 34.5 mph 43.7 mph N/A   Clear
2:52 PM 46.0 °F 36.5 °F 23.0 °F 40% 29.62 in 10.0 mi NW 31.1 mph 42.6 mph N/A   Clear
3:52 PM 45.0 °F 34.6 °F 24.1 °F 44% 29.63 in 10.0 mi WNW 34.5 mph 42.6 mph N/A   Partly Cloudy
4:52 PM 42.1 °F 32.1 °F 26.1 °F 53% 29.68 in 10.0 mi NW 25.3 mph 32.2 mph N/A   Clear
5:52 PM 37.9 °F 28.2 °F 28.0 °F 68% 29.72 in 10.0 mi NW 18.4 mph - N/A   Scattered Clouds
6:52 PM 36.0 °F 27.1 °F 27.0 °F 70% 29.75 in 10.0 mi NW 13.8 mph - N/A   Clear
7:52 PM 33.1 °F 24.4 °F 26.1 °F 75% 29.78 in 10.0 mi NW 11.5 mph - N/A   Clear
8:52 PM 32.0 °F 22.5 °F 26.1 °F 79% 29.81 in 10.0 mi NW 12.7 mph - N/A   Clear
9:52 PM 33.1 °F 24.4 °F 26.1 °F 75% 29.82 in 10.0 mi WNW 11.5 mph - N/A   Clear
10:52 PM 27.0 °F 18.7 °F 23.0 °F 85% 29.84 in 10.0 mi West 8.1 mph - N/A   Clear
11:52 PM 30.0 °F 20.5 °F 21.0 °F 69% 29.84 in 10.0 mi West 11.5 mph - N/A   Clear